Time,TemperatureF,DewpointF,PressureIn,WindDirection,WindDirectionDegrees,WindSpeedMPH,WindSpeedGustMPH,Humidity,HourlyPrecipIn,Conditions,Clouds,dailyrainin,SoftwareType,DateUTC
2014-01-13 00:00:00,22.3,3.2,23.36,North,8,0.0,0.0,43,0.00,,---,0.00,VWS V14.00,2014-01-13 07:00:00,
2014-01-13 00:05:00,21.9,2.9,23.36,North,8,0.0,0.0,43,0.00,,---,0.00,VWS V14.00,2014-01-13 07:05:00,
2014-01-13 00:10:00,21.9,2.9,23.36,ENE,68,3.6,3.6,43,0.00,,---,0.00,VWS V14.00,2014-01-13 07:10:00,
2014-01-13 00:15:00,21.7,2.7,23.36,ENE,68,2.7,2.7,43,0.00,,---,0.00,VWS V14.00,2014-01-13 07:15:00,
2014-01-13 00:21:00,21.6,2.5,23.33,ENE,72,0.0,2.2,43,0.00,,---,0.00,VWS V14.00,2014-01-13 07:21:00,
2014-01-13 00:26:00,21.6,2.5,23.33,ENE,72,0.0,0.0,43,0.00,,---,0.00,VWS V14.00,2014-01-13 07:26:00,
2014-01-13 00:31:00,21.2,2.2,23.33,ENE,72,0.0,0.0,43,0.00,,---,0.00,VWS V14.00,2014-01-13 07:31:00,
2014-01-13 00:36:00,21.0,2.0,23.36,ENE,72,0.0,0.0,43,0.00,,---,0.00,VWS V14.00,2014-01-13 07:36:00,
2014-01-13 00:41:00,20.8,1.9,23.36,ENE,72,0.0,0.0,43,0.00,,---,0.00,VWS V14.00,2014-01-13 07:41:00,
2014-01-13 00:46:00,20.7,1.7,23.36,ENE,72,0.0,0.0,43,0.00,,---,0.00,VWS V14.00,2014-01-13 07:46:00,
2014-01-13 00:51:00,20.5,1.5,23.36,ENE,72,0.0,0.0,43,0.00,,---,0.00,VWS V14.00,2014-01-13 07:51:00,
2014-01-13 00:56:00,20.3,1.4,23.36,ENE,72,0.0,0.0,43,0.00,,---,0.00,VWS V14.00,2014-01-13 07:56:00,
2014-01-13 01:01:00,20.3,1.4,23.36,ENE,72,0.0,0.0,43,0.00,,---,0.00,VWS V14.00,2014-01-13 08:01:00,
2014-01-13 01:06:00,20.3,1.4,23.36,NW,324,0.0,0.0,43,0.00,,---,0.00,VWS V14.00,2014-01-13 08:06:00,
2014-01-13 01:12:00,20.1,1.2,23.36,NW,324,0.0,0.0,43,0.00,,---,0.00,VWS V14.00,2014-01-13 08:12:00,
2014-01-13 01:17:00,20.1,1.2,23.36,NW,320,0.0,0.0,43,0.00,,---,0.00,VWS V14.00,2014-01-13 08:17:00,
2014-01-13 01:22:00,19.9,1.1,23.36,NW,320,0.0,0.0,43,0.00,,---,0.00,VWS V14.00,2014-01-13 08:22:00,
2014-01-13 01:27:00,19.8,0.9,23.36,NW,320,0.0,0.0,43,0.00,,---,0.00,VWS V14.00,2014-01-13 08:27:00,
2014-01-13 01:32:00,19.8,0.9,23.36,NW,320,0.0,0.0,43,0.00,,---,0.00,VWS V14.00,2014-01-13 08:32:00,
2014-01-13 01:37:00,19.6,0.7,23.36,NW,320,0.0,0.0,43,0.00,,---,0.00,VWS V14.00,2014-01-13 08:37:00,
2014-01-13 01:42:00,19.4,0.6,23.36,NW,320,0.0,0.0,43,0.00,,---,0.00,VWS V14.00,2014-01-13 08:42:00,
2014-01-13 01:47:00,19.4,0.6,23.36,NW,317,0.0,0.0,43,0.00,,---,0.00,VWS V14.00,2014-01-13 08:47:00,
2014-01-13 01:52:00,19.4,0.6,23.36,NW,317,0.0,0.0,43,0.00,,---,0.00,VWS V14.00,2014-01-13 08:52:00,
2014-01-13 01:57:00,19.4,0.6,23.36,NW,317,0.0,0.0,43,0.00,,---,0.00,VWS V14.00,2014-01-13 08:57:00,
2014-01-13 02:02:00,19.2,0.4,23.36,NE,55,0.0,0.0,43,0.00,,---,0.00,VWS V14.00,2014-01-13 09:02:00,
2014-01-13 02:07:00,19.2,0.4,23.36,NE,55,0.0,0.0,43,0.00,,---,0.00,VWS V14.00,2014-01-13 09:07:00,
2014-01-13 02:12:00,19.0,0.2,23.36,NE,55,0.0,0.0,43,0.00,,---,0.00,VWS V14.00,2014-01-13 09:12:00,
2014-01-13 02:17:00,18.9,0.1,23.36,NE,55,0.0,0.0,43,0.00,,---,0.00,VWS V14.00,2014-01-13 09:17:00,
2014-01-13 02:22:00,18.7,-0.1,23.36,NE,55,0.0,0.0,43,0.00,,---,0.00,VWS V14.00,2014-01-13 09:22:00,
2014-01-13 02:27:00,18.5,-0.3,23.36,NE,55,0.0,0.0,43,0.00,,---,0.00,VWS V14.00,2014-01-13 09:27:00,
2014-01-13 02:32:00,18.3,-0.4,23.36,NE,55,0.0,0.0,43,0.00,,---,0.00,VWS V14.00,2014-01-13 09:32:00,
2014-01-13 02:38:00,18.3,-0.4,23.36,NE,55,0.0,0.0,43,0.00,,---,0.00,VWS V14.00,2014-01-13 09:38:00,
2014-01-13 02:43:00,18.1,-0.6,23.36,NE,55,0.0,0.0,43,0.00,,---,0.00,VWS V14.00,2014-01-13 09:43:00,
2014-01-13 02:48:00,18.1,-0.6,23.36,NE,55,0.0,0.0,43,0.00,,---,0.00,VWS V14.00,2014-01-13 09:48:00,
2014-01-13 02:53:00,18.0,-0.8,23.36,NE,55,0.0,0.0,43,0.00,,---,0.00,VWS V14.00,2014-01-13 09:53:00,
2014-01-13 02:58:00,17.8,-0.9,23.36,NE,55,0.0,0.0,43,0.00,,---,0.00,VWS V14.00,2014-01-13 09:58:00,
2014-01-13 03:03:00,17.6,-0.6,23.36,ENE,58,0.0,0.0,44,0.00,,---,0.00,VWS V14.00,2014-01-13 10:03:00,
2014-01-13 03:08:00,17.4,-0.8,23.36,ENE,58,0.0,0.0,44,0.00,,---,0.00,VWS V14.00,2014-01-13 10:08:00,
2014-01-13 03:13:00,17.4,-0.8,23.36,ENE,58,0.0,0.0,44,0.00,,---,0.00,VWS V14.00,2014-01-13 10:13:00,
2014-01-13 03:18:00,17.2,-0.9,23.36,ENE,58,0.0,0.0,44,0.00,,---,0.00,VWS V14.00,2014-01-13 10:18:00,
2014-01-13 03:23:00,17.1,-1.1,23.36,ENE,58,0.0,0.0,44,0.00,,---,0.00,VWS V14.00,2014-01-13 10:23:00,
2014-01-13 03:28:00,17.1,-1.1,23.36,ENE,58,0.0,0.0,44,0.00,,---,0.00,VWS V14.00,2014-01-13 10:28:00,
2014-01-13 03:33:00,16.9,-1.2,23.36,ENE,59,0.0,0.0,44,0.00,,---,0.00,VWS V14.00,2014-01-13 10:33:00,
2014-01-13 03:38:00,16.9,-1.2,23.36,ENE,59,0.0,0.0,44,0.00,,---,0.00,VWS V14.00,2014-01-13 10:38:00,
2014-01-13 03:43:00,16.7,-1.4,23.36,ENE,59,0.0,0.0,44,0.00,,---,0.00,VWS V14.00,2014-01-13 10:43:00,
2014-01-13 03:48:00,16.7,-1.4,23.36,ENE,59,0.0,0.0,44,0.00,,---,0.00,VWS V14.00,2014-01-13 10:48:00,
2014-01-13 03:53:00,16.5,-1.6,23.36,ENE,59,0.0,0.0,44,0.00,,---,0.00,VWS V14.00,2014-01-13 10:53:00,
2014-01-13 03:58:00,16.3,-1.7,23.36,ENE,59,0.0,0.0,44,0.00,,---,0.00,VWS V14.00,2014-01-13 10:58:00,
2014-01-13 04:03:00,16.2,-1.9,23.36,ENE,59,0.0,0.0,44,0.00,,---,0.00,VWS V14.00,2014-01-13 11:03:00,
2014-01-13 04:08:00,16.2,-1.9,23.36,ENE,59,0.0,0.0,44,0.00,,---,0.00,VWS V14.00,2014-01-13 11:08:00,
2014-01-13 04:14:00,16.0,-2.1,23.36,ENE,59,0.0,0.0,44,0.00,,---,0.00,VWS V14.00,2014-01-13 11:14:00,
2014-01-13 04:19:00,15.8,-2.2,23.36,ENE,59,0.0,0.0,44,0.00,,---,0.00,VWS V14.00,2014-01-13 11:19:00,
2014-01-13 04:24:00,15.8,-2.2,23.36,ENE,59,0.0,0.0,44,0.00,,---,0.00,VWS V14.00,2014-01-13 11:24:00,
2014-01-13 04:29:00,15.8,-2.2,23.36,ENE,59,0.0,0.0,44,0.00,,---,0.00,VWS V14.00,2014-01-13 11:29:00,
2014-01-13 04:34:00,15.6,-2.4,23.36,ENE,59,0.0,0.0,44,0.00,,---,0.00,VWS V14.00,2014-01-13 11:34:00,
2014-01-13 04:39:00,15.4,-2.6,23.36,ENE,59,0.0,0.0,44,0.00,,---,0.00,VWS V14.00,2014-01-13 11:39:00,
2014-01-13 04:44:00,15.4,-2.6,23.36,ENE,59,0.0,0.0,44,0.00,,---,0.00,VWS V14.00,2014-01-13 11:44:00,
2014-01-13 04:49:00,15.3,-2.7,23.36,ENE,59,0.0,0.0,44,0.00,,---,0.00,VWS V14.00,2014-01-13 11:49:00,
2014-01-13 04:54:00,15.1,-2.9,23.36,ENE,59,0.0,0.0,44,0.00,,---,0.00,VWS V14.00,2014-01-13 11:54:00,
2014-01-13 04:59:00,15.1,-2.9,23.36,ENE,59,0.0,0.0,44,0.00,,---,0.00,VWS V14.00,2014-01-13 11:59:00,
2014-01-13 05:04:00,15.1,-2.9,23.36,ENE,59,0.0,0.0,44,0.00,,---,0.00,VWS V14.00,2014-01-13 12:04:00,
2014-01-13 05:09:00,15.1,-2.9,23.39,ENE,59,0.0,0.0,44,0.00,,---,0.00,VWS V14.00,2014-01-13 12:09:00,
2014-01-13 05:14:00,14.9,-3.1,23.39,ENE,59,0.0,0.0,44,0.00,,---,0.00,VWS V14.00,2014-01-13 12:14:00,
2014-01-13 05:19:00,14.9,-3.1,23.39,ENE,59,0.0,0.0,44,0.00,,---,0.00,VWS V14.00,2014-01-13 12:19:00,
2014-01-13 05:24:00,14.9,-3.1,23.39,ENE,59,0.0,0.0,44,0.00,,---,0.00,VWS V14.00,2014-01-13 12:24:00,
2014-01-13 05:29:00,14.9,-3.1,23.39,ENE,59,0.0,0.0,44,0.00,,---,0.00,VWS V14.00,2014-01-13 12:29:00,
2014-01-13 05:34:00,14.5,-3.4,23.39,ENE,59,0.0,0.0,44,0.00,,---,0.00,VWS V14.00,2014-01-13 12:34:00,
2014-01-13 05:39:00,14.4,-3.6,23.39,ENE,59,0.0,0.0,44,0.00,,---,0.00,VWS V14.00,2014-01-13 12:39:00,
2014-01-13 05:44:00,14.2,-3.7,23.39,ENE,59,0.0,0.0,44,0.00,,---,0.00,VWS V14.00,2014-01-13 12:44:00,
2014-01-13 05:49:00,14.2,-3.7,23.39,ENE,59,0.0,0.0,44,0.00,,---,0.00,VWS V14.00,2014-01-13 12:49:00,
2014-01-13 05:54:00,14.2,-3.7,23.39,ENE,59,0.0,0.0,44,0.00,,---,0.00,VWS V14.00,2014-01-13 12:54:00,
2014-01-13 05:59:00,14.2,-3.7,23.39,ENE,59,0.0,0.0,44,0.00,,---,0.00,VWS V14.00,2014-01-13 12:59:00,
2014-01-13 06:04:00,14.2,-3.7,23.39,ENE,59,0.0,0.0,44,0.00,,---,0.00,VWS V14.00,2014-01-13 13:04:00,
2014-01-13 06:10:00,14.2,-3.7,23.39,ENE,59,0.0,0.0,44,0.00,,---,0.00,VWS V14.00,2014-01-13 13:10:00,
2014-01-13 06:15:00,14.2,-3.7,23.39,ENE,59,0.0,0.0,44,0.00,,---,0.00,VWS V14.00,2014-01-13 13:15:00,
2014-01-13 06:20:00,14.2,-3.7,23.39,ENE,59,0.0,0.0,44,0.00,,---,0.00,VWS V14.00,2014-01-13 13:20:00,
2014-01-13 06:25:00,14.2,-3.7,23.39,ENE,59,0.0,0.0,44,0.00,,---,0.00,VWS V14.00,2014-01-13 13:25:00,
2014-01-13 06:30:00,13.8,-3.6,23.39,ENE,59,0.0,0.0,45,0.00,,---,0.00,VWS V14.00,2014-01-13 13:30:00,
2014-01-13 06:35:00,13.6,-3.8,23.39,ENE,59,0.0,0.0,45,0.00,,---,0.00,VWS V14.00,2014-01-13 13:35:00,
2014-01-13 06:40:00,13.6,-3.8,23.39,ENE,59,0.0,0.0,45,0.00,,---,0.00,VWS V14.00,2014-01-13 13:40:00,
2014-01-13 06:45:00,13.8,-3.6,23.39,ENE,59,0.0,0.0,45,0.00,,---,0.00,VWS V14.00,2014-01-13 13:45:00,
2014-01-13 06:50:00,13.8,-3.6,23.42,ENE,59,0.0,0.0,45,0.00,,---,0.00,VWS V14.00,2014-01-13 13:50:00,
2014-01-13 06:55:00,13.8,-3.6,23.42,ENE,59,0.0,0.0,45,0.00,,---,0.00,VWS V14.00,2014-01-13 13:55:00,
2014-01-13 07:00:00,13.6,-3.8,23.42,ENE,59,0.0,0.0,45,0.00,,---,0.00,VWS V14.00,2014-01-13 14:00:00,
2014-01-13 07:05:00,13.5,-3.9,23.39,ENE,59,0.0,0.0,45,0.00,,---,0.00,VWS V14.00,2014-01-13 14:05:00,
2014-01-13 07:11:00,13.6,-3.8,23.39,ENE,59,0.0,0.0,45,0.00,,---,0.00,VWS V14.00,2014-01-13 14:11:00,
2014-01-13 07:16:00,13.6,-3.8,23.39,ENE,59,0.0,0.0,45,0.00,,---,0.00,VWS V14.00,2014-01-13 14:16:00,
2014-01-13 07:21:00,13.6,-3.8,23.39,ENE,59,0.0,0.0,45,0.00,,---,0.00,VWS V14.00,2014-01-13 14:21:00,
2014-01-13 07:26:00,13.5,-3.9,23.39,ENE,59,0.0,0.0,45,0.00,,---,0.00,VWS V14.00,2014-01-13 14:26:00,
2014-01-13 07:31:00,13.5,-3.9,23.39,ENE,59,0.0,0.0,45,0.00,,---,0.00,VWS V14.00,2014-01-13 14:31:00,
2014-01-13 07:36:00,13.5,-3.9,23.39,ENE,59,0.0,0.0,45,0.00,,---,0.00,VWS V14.00,2014-01-13 14:36:00,
2014-01-13 07:41:00,13.5,-3.9,23.39,ENE,59,0.0,0.0,45,0.00,,---,0.00,VWS V14.00,2014-01-13 14:41:00,
2014-01-13 07:46:00,13.5,-3.9,23.39,ENE,59,0.0,0.0,45,0.00,,---,0.00,VWS V14.00,2014-01-13 14:46:00,
2014-01-13 07:51:00,13.3,-4.1,23.39,ENE,59,0.0,0.0,45,0.00,,---,0.00,VWS V14.00,2014-01-13 14:51:00,
2014-01-13 07:56:00,13.3,-4.1,23.39,ENE,59,0.0,0.0,45,0.00,,---,0.00,VWS V14.00,2014-01-13 14:56:00,
2014-01-13 08:01:00,13.5,-3.9,23.39,ENE,59,0.0,0.0,45,0.00,,---,0.00,VWS V14.00,2014-01-13 15:01:00,
2014-01-13 08:06:00,13.5,-3.9,23.39,ENE,59,0.0,0.0,45,0.00,,---,0.00,VWS V14.00,2014-01-13 15:06:00,
2014-01-13 08:11:00,13.6,-3.8,23.39,ENE,59,0.0,0.0,45,0.00,,---,0.00,VWS V14.00,2014-01-13 15:11:00,
2014-01-13 08:16:00,14.2,-3.7,23.39,ENE,59,0.0,0.0,44,0.00,,---,0.00,VWS V14.00,2014-01-13 15:16:00,
2014-01-13 08:21:00,14.7,-3.2,23.39,ENE,59,0.0,0.0,44,0.00,,---,0.00,VWS V14.00,2014-01-13 15:21:00,
2014-01-13 08:26:00,15.4,-2.6,23.39,ENE,59,0.0,0.0,44,0.00,,---,0.00,VWS V14.00,2014-01-13 15:26:00,
2014-01-13 08:31:00,16.2,-1.9,23.39,ENE,59,0.0,0.0,44,0.00,,---,0.00,VWS V14.00,2014-01-13 15:31:00,
2014-01-13 08:36:00,16.7,-1.4,23.42,ENE,59,0.0,0.0,44,0.00,,---,0.00,VWS V14.00,2014-01-13 15:36:00,
2014-01-13 08:41:00,17.4,-0.8,23.42,ENE,59,0.0,0.0,44,0.00,,---,0.00,VWS V14.00,2014-01-13 15:41:00,
2014-01-13 08:46:00,18.1,-0.6,23.42,ENE,59,0.0,0.0,43,0.00,,---,0.00,VWS V14.00,2014-01-13 15:46:00,
2014-01-13 08:52:00,19.0,0.2,23.42,NE,56,0.0,0.0,43,0.00,,---,0.00,VWS V14.00,2014-01-13 15:52:00,
2014-01-13 08:57:00,19.9,1.1,23.42,NE,56,0.0,0.0,43,0.00,,---,0.00,VWS V14.00,2014-01-13 15:57:00,
2014-01-13 09:02:00,20.8,1.9,23.42,NE,56,0.0,0.0,43,0.00,,---,0.00,VWS V14.00,2014-01-13 16:02:00,
2014-01-13 09:07:00,21.7,2.7,23.42,ENE,59,0.0,0.0,43,0.00,,---,0.00,VWS V14.00,2014-01-13 16:07:00,
2014-01-13 09:12:00,22.8,3.7,23.42,ENE,59,0.0,0.0,43,0.00,,---,0.00,VWS V14.00,2014-01-13 16:12:00,
2014-01-13 09:17:00,23.7,4.0,23.42,ENE,59,0.0,0.0,42,0.00,,---,0.00,VWS V14.00,2014-01-13 16:17:00,
2014-01-13 09:22:00,25.2,5.3,23.42,ENE,59,0.0,0.0,42,0.00,,---,0.00,VWS V14.00,2014-01-13 16:22:00,
2014-01-13 09:27:00,26.6,6.6,23.42,ENE,59,0.0,0.0,42,0.00,,---,0.00,VWS V14.00,2014-01-13 16:27:00,
2014-01-13 09:32:00,27.9,7.2,23.42,ENE,59,0.0,0.0,41,0.00,,---,0.00,VWS V14.00,2014-01-13 16:32:00,
2014-01-13 09:37:00,29.7,8.9,23.42,ENE,66,0.0,0.0,41,0.00,,---,0.00,VWS V14.00,2014-01-13 16:37:00,
2014-01-13 09:42:00,31.6,10.6,23.42,ENE,67,0.0,0.0,41,0.00,,---,0.00,VWS V14.00,2014-01-13 16:42:00,
2014-01-13 09:47:00,33.3,12.1,23.42,East,83,0.0,0.0,41,0.00,,---,0.00,VWS V14.00,2014-01-13 16:47:00,
2014-01-13 09:52:00,34.9,13.0,23.42,East,83,0.0,0.0,40,0.00,,---,0.00,VWS V14.00,2014-01-13 16:52:00,
2014-01-13 09:57:00,36.3,14.3,23.42,SSE,156,4.0,4.0,40,0.00,,---,0.00,VWS V14.00,2014-01-13 16:57:00,
2014-01-13 10:02:00,37.4,14.7,23.42,SE,126,3.6,3.6,39,0.00,,---,0.00,VWS V14.00,2014-01-13 17:02:00,
2014-01-13 10:07:00,38.5,15.7,23.42,ENE,76,3.6,3.6,39,0.00,,---,0.00,VWS V14.00,2014-01-13 17:07:00,
2014-01-13 10:12:00,39.4,16.5,23.42,North,9,0.0,3.6,39,0.00,,---,0.00,VWS V14.00,2014-01-13 17:12:00,
2014-01-13 10:17:00,39.9,17.0,23.42,SE,138,0.0,3.1,39,0.00,,---,0.00,VWS V14.00,2014-01-13 17:17:00,
2014-01-13 10:22:00,41.2,18.1,23.45,SE,131,0.0,2.7,39,0.00,,---,0.00,VWS V14.00,2014-01-13 17:22:00,
2014-01-13 10:27:00,42.4,19.2,23.45,SE,138,0.0,0.0,39,0.00,,---,0.00,VWS V14.00,2014-01-13 17:27:00,
2014-01-13 10:33:00,43.5,19.6,23.45,North,353,0.0,5.8,38,0.00,,---,0.00,VWS V14.00,2014-01-13 17:33:00,
2014-01-13 10:37:00,43.9,19.9,23.42,NNE,23,0.0,0.0,38,0.00,,---,0.00,VWS V14.00,2014-01-13 17:37:00,
2014-01-13 10:42:00,44.6,20.6,23.42,North,357,3.6,3.6,38,0.00,,---,0.00,VWS V14.00,2014-01-13 17:42:00,
2014-01-13 10:48:00,45.5,21.4,23.42,SE,142,4.0,4.0,38,0.00,,---,0.00,VWS V14.00,2014-01-13 17:48:00,
2014-01-13 10:53:00,47.3,22.4,23.42,SE,140,0.0,2.2,37,0.00,,---,0.00,VWS V14.00,2014-01-13 17:53:00,
2014-01-13 10:58:00,47.3,22.4,23.42,SE,144,4.0,4.0,37,0.00,,---,0.00,VWS V14.00,2014-01-13 17:58:00,
2014-01-13 11:03:00,48.6,23.5,23.42,SE,143,2.7,2.7,37,0.00,,---,0.00,VWS V14.00,2014-01-13 18:03:00,
2014-01-13 11:08:00,49.8,24.6,23.42,SE,131,2.7,3.6,37,0.00,,---,0.00,VWS V14.00,2014-01-13 18:08:00,
2014-01-13 11:13:00,50.7,25.4,23.42,SE,139,3.1,3.1,37,0.00,,---,0.00,VWS V14.00,2014-01-13 18:13:00,
2014-01-13 11:18:00,50.9,25.6,23.42,East,93,2.2,2.2,37,0.00,,---,0.00,VWS V14.00,2014-01-13 18:18:00,
2014-01-13 11:23:00,50.7,25.4,23.42,SSE,154,3.1,3.6,37,0.00,,---,0.00,VWS V14.00,2014-01-13 18:23:00,
2014-01-13 11:28:00,51.6,26.2,23.42,SSE,147,3.1,4.0,37,0.00,,---,0.00,VWS V14.00,2014-01-13 18:28:00,
2014-01-13 11:33:00,52.7,26.5,23.42,East,91,0.0,3.6,36,0.00,,---,0.00,VWS V14.00,2014-01-13 18:33:00,
2014-01-13 11:38:00,52.3,26.2,23.42,ESE,117,4.5,4.5,36,0.00,,---,0.00,VWS V14.00,2014-01-13 18:38:00,
2014-01-13 11:43:00,52.2,26.0,23.42,SE,146,3.1,3.1,36,0.00,,---,0.00,VWS V14.00,2014-01-13 18:43:00,
2014-01-13 11:48:00,52.0,25.9,23.42,NE,54,3.1,3.1,36,0.00,,---,0.00,VWS V14.00,2014-01-13 18:48:00,
2014-01-13 11:53:00,52.7,26.5,23.42,SSE,155,2.2,2.7,36,0.00,,---,0.00,VWS V14.00,2014-01-13 18:53:00,
2014-01-13 11:58:00,53.4,27.1,23.42,SE,139,4.0,4.0,36,0.00,,---,0.00,VWS V14.00,2014-01-13 18:58:00,
2014-01-13 12:03:00,53.8,27.5,23.42,East,97,0.0,3.1,36,0.00,,---,0.00,VWS V14.00,2014-01-13 19:03:00,
2014-01-13 12:08:00,55.0,28.6,23.39,East,92,3.1,3.6,36,0.00,,---,0.00,VWS V14.00,2014-01-13 19:08:00,
2014-01-13 12:13:00,54.5,28.1,23.39,SSE,149,3.1,3.6,36,0.00,,---,0.00,VWS V14.00,2014-01-13 19:13:00,
2014-01-13 12:18:00,54.0,27.6,23.39,SSE,158,3.6,4.0,36,0.00,,---,0.00,VWS V14.00,2014-01-13 19:18:00,
2014-01-13 12:23:00,54.7,28.3,23.39,East,88,2.7,4.9,36,0.00,,---,0.00,VWS V14.00,2014-01-13 19:23:00,
2014-01-13 12:28:00,54.1,27.8,23.39,ESE,105,2.7,3.6,36,0.00,,---,0.00,VWS V14.00,2014-01-13 19:28:00,
2014-01-13 12:33:00,54.7,28.3,23.39,SE,132,3.6,3.6,36,0.00,,---,0.00,VWS V14.00,2014-01-13 19:33:00,
2014-01-13 12:38:00,53.8,27.5,23.39,East,91,0.0,0.0,36,0.00,,---,0.00,VWS V14.00,2014-01-13 19:38:00,
2014-01-13 12:43:00,54.5,28.1,23.39,NNE,12,3.6,5.4,36,0.00,,---,0.00,VWS V14.00,2014-01-13 19:43:00,
2014-01-13 12:49:00,55.0,28.6,23.39,SSE,158,0.0,0.0,36,0.00,,---,0.00,VWS V14.00,2014-01-13 19:49:00,
2014-01-13 12:54:00,56.1,28.9,23.39,South,171,2.2,3.1,35,0.00,,---,0.00,VWS V14.00,2014-01-13 19:54:00,
2014-01-13 12:59:00,57.2,29.8,23.39,SE,131,4.0,5.4,35,0.00,,---,0.00,VWS V14.00,2014-01-13 19:59:00,
2014-01-13 13:04:00,56.5,29.2,23.39,East,83,0.0,3.6,35,0.00,,---,0.00,VWS V14.00,2014-01-13 20:04:00,
2014-01-13 13:09:00,55.6,28.4,23.36,ENE,75,0.0,0.0,35,0.00,,---,0.00,VWS V14.00,2014-01-13 20:09:00,
2014-01-13 13:14:00,55.9,28.7,23.36,SE,128,0.0,0.0,35,0.00,,---,0.00,VWS V14.00,2014-01-13 20:14:00,
2014-01-13 13:19:00,55.9,28.7,23.36,ESE,118,2.7,2.7,35,0.00,,---,0.00,VWS V14.00,2014-01-13 20:19:00,
2014-01-13 13:24:00,55.4,28.2,23.36,SSE,152,4.5,4.5,35,0.00,,---,0.00,VWS V14.00,2014-01-13 20:24:00,
2014-01-13 13:29:00,54.9,28.4,23.36,SSE,159,2.7,3.6,36,0.00,,---,0.00,VWS V14.00,2014-01-13 20:29:00,
2014-01-13 13:34:00,54.1,27.8,23.36,SSW,210,2.7,2.7,36,0.00,,---,0.00,VWS V14.00,2014-01-13 20:34:00,
2014-01-13 13:39:00,53.2,27.0,23.36,SSE,159,2.2,2.7,36,0.00,,---,0.00,VWS V14.00,2014-01-13 20:39:00,
2014-01-13 13:44:00,53.4,27.1,23.36,SE,146,3.6,4.5,36,0.00,,---,0.00,VWS V14.00,2014-01-13 20:44:00,
2014-01-13 13:49:00,53.1,26.8,23.36,SE,127,4.0,4.0,36,0.00,,---,0.00,VWS V14.00,2014-01-13 20:49:00,
2014-01-13 13:54:00,52.0,25.9,23.36,SSE,157,2.2,4.0,36,0.00,,---,0.00,VWS V14.00,2014-01-13 20:54:00,
2014-01-13 13:59:00,51.4,26.0,23.36,East,98,2.2,2.7,37,0.00,,---,0.00,VWS V14.00,2014-01-13 20:59:00,
2014-01-13 14:04:00,50.5,25.2,23.36,NNE,23,2.7,3.1,37,0.00,,---,0.00,VWS V14.00,2014-01-13 21:04:00,
2014-01-13 14:09:00,50.5,25.2,23.36,SE,141,0.0,5.8,37,0.00,,---,0.00,VWS V14.00,2014-01-13 21:09:00,
2014-01-13 14:11:00,50.5,25.2,23.36,East,101,0.0,3.1,37,0.00,,---,0.00,VWS V14.00,2014-01-13 21:11:00,
2014-01-13 14:16:00,50.2,24.9,23.36,North,3,4.0,4.0,37,0.00,,---,0.00,VWS V14.00,2014-01-13 21:16:00,
2014-01-13 14:21:00,50.2,24.9,23.36,East,101,3.1,4.0,37,0.00,,---,0.00,VWS V14.00,2014-01-13 21:21:00,
2014-01-13 14:26:00,50.2,24.9,23.36,ESE,104,4.0,4.0,37,0.00,,---,0.00,VWS V14.00,2014-01-13 21:26:00,
2014-01-13 14:31:00,50.0,24.8,23.36,East,100,3.1,3.1,37,0.00,,---,0.00,VWS V14.00,2014-01-13 21:31:00,
2014-01-13 14:36:00,50.0,24.8,23.36,ESE,116,6.3,6.3,37,0.00,,---,0.00,VWS V14.00,2014-01-13 21:36:00,
2014-01-13 14:41:00,50.2,24.9,23.36,East,87,4.9,6.3,37,0.00,,---,0.00,VWS V14.00,2014-01-13 21:41:00,
2014-01-13 14:46:00,50.0,24.8,23.36,East,94,3.6,3.6,37,0.00,,---,0.00,VWS V14.00,2014-01-13 21:46:00,
2014-01-13 14:51:00,49.8,24.6,23.36,East,90,4.9,4.9,37,0.00,,---,0.00,VWS V14.00,2014-01-13 21:51:00,
2014-01-13 14:56:00,49.6,24.5,23.36,East,97,4.9,4.9,37,0.00,,---,0.00,VWS V14.00,2014-01-13 21:56:00,
2014-01-13 15:01:00,49.5,24.3,23.36,SSE,151,4.0,6.3,37,0.00,,---,0.00,VWS V14.00,2014-01-13 22:01:00,
2014-01-13 15:06:00,49.1,24.0,23.36,SE,127,3.1,4.0,37,0.00,,---,0.00,VWS V14.00,2014-01-13 22:06:00,
2014-01-13 15:11:00,48.9,23.8,23.36,North,10,0.0,0.0,37,0.00,,---,0.00,VWS V14.00,2014-01-13 22:11:00,
2014-01-13 15:16:00,48.7,23.6,23.36,North,7,3.1,3.1,37,0.00,,---,0.00,VWS V14.00,2014-01-13 22:16:00,
2014-01-13 15:21:00,48.6,23.5,23.36,East,96,3.6,5.4,37,0.00,,---,0.00,VWS V14.00,2014-01-13 22:21:00,
2014-01-13 15:26:00,48.6,23.5,23.36,East,83,4.0,4.0,37,0.00,,---,0.00,VWS V14.00,2014-01-13 22:26:00,
2014-01-13 15:31:00,48.4,23.3,23.36,ESE,106,3.1,3.6,37,0.00,,---,0.00,VWS V14.00,2014-01-13 22:31:00,
2014-01-13 15:36:00,48.4,23.3,23.36,ESE,118,3.1,3.1,37,0.00,,---,0.00,VWS V14.00,2014-01-13 22:36:00,
2014-01-13 15:41:00,48.2,23.2,23.36,East,99,0.0,2.2,37,0.00,,---,0.00,VWS V14.00,2014-01-13 22:41:00,
2014-01-13 15:46:00,48.0,23.0,23.36,ENE,73,2.7,3.1,37,0.00,,---,0.00,VWS V14.00,2014-01-13 22:46:00,
2014-01-13 15:51:00,47.7,22.7,23.36,ENE,78,4.0,4.9,37,0.00,,---,0.00,VWS V14.00,2014-01-13 22:51:00,
2014-01-13 15:56:00,47.5,22.5,23.36,ENE,78,0.0,0.0,37,0.00,,---,0.00,VWS V14.00,2014-01-13 22:56:00,
2014-01-13 16:01:00,47.5,22.5,23.36,West,270,2.7,3.6,37,0.00,,---,0.00,VWS V14.00,2014-01-13 23:01:00,
2014-01-13 16:06:00,47.5,22.5,23.36,West,264,2.2,3.1,37,0.00,,---,0.00,VWS V14.00,2014-01-13 23:06:00,
2014-01-13 16:11:00,47.7,22.7,23.36,North,0,3.6,4.0,37,0.00,,---,0.00,VWS V14.00,2014-01-13 23:11:00,
2014-01-13 16:16:00,47.7,22.7,23.36,East,100,5.8,6.3,37,0.00,,---,0.00,VWS V14.00,2014-01-13 23:16:00,
2014-01-13 16:21:00,47.5,22.5,23.39,East,85,2.7,3.6,37,0.00,,---,0.00,VWS V14.00,2014-01-13 23:21:00,
2014-01-13 16:26:00,47.5,22.5,23.39,NW,311,0.0,0.0,37,0.00,,---,0.00,VWS V14.00,2014-01-13 23:26:00,
2014-01-13 16:31:00,47.7,22.7,23.39,North,7,0.0,0.0,37,0.00,,---,0.00,VWS V14.00,2014-01-13 23:31:00,
2014-01-13 16:37:00,47.5,22.5,23.39,NW,325,0.0,3.1,37,0.00,,---,0.00,VWS V14.00,2014-01-13 23:37:00,
2014-01-13 16:42:00,47.3,22.4,23.39,WNW,290,0.0,0.0,37,0.00,,---,0.00,VWS V14.00,2014-01-13 23:42:00,
2014-01-13 16:47:00,46.9,22.0,23.39,West,275,0.0,0.0,37,0.00,,---,0.00,VWS V14.00,2014-01-13 23:47:00,
2014-01-13 16:52:00,46.6,21.7,23.39,West,273,0.0,0.0,37,0.00,,---,0.00,VWS V14.00,2014-01-13 23:52:00,
2014-01-13 16:57:00,46.0,21.9,23.39,West,273,0.0,0.0,38,0.00,,---,0.00,VWS V14.00,2014-01-13 23:57:00,
2014-01-13 17:02:00,45.7,21.5,23.39,North,353,2.7,2.7,38,0.00,,---,0.00,VWS V14.00,2014-01-14 00:02:00,
2014-01-13 17:07:00,45.1,21.1,23.39,WSW,257,3.1,3.1,38,0.00,,---,0.00,VWS V14.00,2014-01-14 00:07:00,
2014-01-13 17:12:00,44.8,20.7,23.39,NNE,16,2.7,2.7,38,0.00,,---,0.00,VWS V14.00,2014-01-14 00:12:00,
2014-01-13 17:17:00,44.4,20.4,23.39,NNE,16,0.0,0.0,38,0.00,,---,0.00,VWS V14.00,2014-01-14 00:17:00,
2014-01-13 17:22:00,43.7,19.8,23.39,NNE,15,0.0,0.0,38,0.00,,---,0.00,VWS V14.00,2014-01-14 00:22:00,
2014-01-13 17:27:00,42.8,19.0,23.39,NNE,16,0.0,0.0,38,0.00,,---,0.00,VWS V14.00,2014-01-14 00:27:00,
2014-01-13 17:32:00,41.7,18.6,23.39,NNE,16,0.0,0.0,39,0.00,,---,0.00,VWS V14.00,2014-01-14 00:32:00,
2014-01-13 17:37:00,40.6,17.6,23.39,NNE,16,0.0,0.0,39,0.00,,---,0.00,VWS V14.00,2014-01-14 00:37:00,
2014-01-13 17:42:00,39.9,17.0,23.39,NNE,16,0.0,0.0,39,0.00,,---,0.00,VWS V14.00,2014-01-14 00:42:00,
2014-01-13 17:47:00,39.0,16.2,23.39,NNE,16,0.0,0.0,39,0.00,,---,0.00,VWS V14.00,2014-01-14 00:47:00,
2014-01-13 17:52:00,38.1,15.4,23.39,NNE,16,0.0,0.0,39,0.00,,---,0.00,VWS V14.00,2014-01-14 00:52:00,
2014-01-13 17:57:00,37.4,14.7,23.39,NNE,16,0.0,0.0,39,0.00,,---,0.00,VWS V14.00,2014-01-14 00:57:00,
2014-01-13 18:02:00,36.7,14.6,23.39,NNE,16,0.0,0.0,40,0.00,,---,0.00,VWS V14.00,2014-01-14 01:02:00,
2014-01-13 18:07:00,36.1,14.2,23.39,NNE,16,0.0,0.0,40,0.00,,---,0.00,VWS V14.00,2014-01-14 01:07:00,
2014-01-13 18:12:00,35.4,13.5,23.39,NNE,16,0.0,0.0,40,0.00,,---,0.00,VWS V14.00,2014-01-14 01:12:00,
2014-01-13 18:17:00,34.9,13.0,23.39,NNE,16,0.0,0.0,40,0.00,,---,0.00,VWS V14.00,2014-01-14 01:17:00,
2014-01-13 18:22:00,34.2,12.4,23.39,NNE,16,0.0,0.0,40,0.00,,---,0.00,VWS V14.00,2014-01-14 01:22:00,
2014-01-13 18:27:00,33.6,12.4,23.39,NNE,16,0.0,0.0,41,0.00,,---,0.00,VWS V14.00,2014-01-14 01:27:00,
2014-01-13 18:32:00,33.3,12.1,23.39,NNE,16,0.0,0.0,41,0.00,,---,0.00,VWS V14.00,2014-01-14 01:32:00,
2014-01-13 18:37:00,32.5,11.5,23.39,NNE,16,0.0,0.0,41,0.00,,---,0.00,VWS V14.00,2014-01-14 01:37:00,
2014-01-13 18:43:00,32.2,11.1,23.39,NNE,16,0.0,0.0,41,0.00,,---,0.00,VWS V14.00,2014-01-14 01:43:00,
2014-01-13 18:47:00,31.6,10.6,23.39,NNE,16,0.0,0.0,41,0.00,,---,0.00,VWS V14.00,2014-01-14 01:47:00,
2014-01-13 18:53:00,31.1,10.2,23.39,NNE,16,0.0,0.0,41,0.00,,---,0.00,VWS V14.00,2014-01-14 01:53:00,
2014-01-13 18:58:00,30.6,9.7,23.39,NNE,16,0.0,0.0,41,0.00,,---,0.00,VWS V14.00,2014-01-14 01:58:00,
2014-01-13 19:03:00,30.2,9.4,23.39,NNE,16,0.0,0.0,41,0.00,,---,0.00,VWS V14.00,2014-01-14 02:03:00,
2014-01-13 19:08:00,29.8,9.0,23.39,NNE,16,0.0,0.0,41,0.00,,---,0.00,VWS V14.00,2014-01-14 02:08:00,
2014-01-13 19:13:00,29.5,8.7,23.39,NNE,16,0.0,0.0,41,0.00,,---,0.00,VWS V14.00,2014-01-14 02:13:00,
2014-01-13 19:18:00,29.1,8.4,23.39,NNE,16,0.0,0.0,41,0.00,,---,0.00,VWS V14.00,2014-01-14 02:18:00,
2014-01-13 19:23:00,28.8,8.0,23.39,NNE,16,0.0,0.0,41,0.00,,---,0.00,VWS V14.00,2014-01-14 02:23:00,
2014-01-13 19:28:00,28.6,7.9,23.39,NNE,16,0.0,0.0,41,0.00,,---,0.00,VWS V14.00,2014-01-14 02:28:00,
2014-01-13 19:33:00,28.2,7.6,23.39,NNE,16,0.0,0.0,41,0.00,,---,0.00,VWS V14.00,2014-01-14 02:33:00,
2014-01-13 19:38:00,28.0,7.4,23.39,NNE,16,0.0,0.0,41,0.00,,---,0.00,VWS V14.00,2014-01-14 02:38:00,
2014-01-13 19:43:00,27.9,7.2,23.39,NNE,16,0.0,0.0,41,0.00,,---,0.00,VWS V14.00,2014-01-14 02:43:00,
2014-01-13 19:48:00,27.7,7.1,23.39,NNE,16,0.0,0.0,41,0.00,,---,0.00,VWS V14.00,2014-01-14 02:48:00,
2014-01-13 19:53:00,27.5,6.9,23.39,NNE,16,0.0,0.0,41,0.00,,---,0.00,VWS V14.00,2014-01-14 02:53:00,
2014-01-13 19:58:00,27.3,6.7,23.39,NNE,16,0.0,0.0,41,0.00,,---,0.00,VWS V14.00,2014-01-14 02:58:00,
2014-01-13 20:03:00,27.1,6.6,23.39,NNE,16,0.0,0.0,41,0.00,,---,0.00,VWS V14.00,2014-01-14 03:03:00,
2014-01-13 20:08:00,27.0,6.4,23.39,NNE,16,0.0,0.0,41,0.00,,---,0.00,VWS V14.00,2014-01-14 03:08:00,
2014-01-13 20:13:00,26.8,6.2,23.39,NNE,16,0.0,0.0,41,0.00,,---,0.00,VWS V14.00,2014-01-14 03:13:00,
2014-01-13 20:18:00,26.6,6.6,23.39,NNE,16,0.0,0.0,42,0.00,,---,0.00,VWS V14.00,2014-01-14 03:18:00,
2014-01-13 20:23:00,26.4,6.4,23.42,NNE,16,0.0,0.0,42,0.00,,---,0.00,VWS V14.00,2014-01-14 03:23:00,
2014-01-13 20:29:00,26.2,6.3,23.42,NNE,16,0.0,0.0,42,0.00,,---,0.00,VWS V14.00,2014-01-14 03:29:00,
2014-01-13 20:34:00,26.1,6.1,23.42,NNE,16,0.0,0.0,42,0.00,,---,0.00,VWS V14.00,2014-01-14 03:34:00,
2014-01-13 20:39:00,25.9,6.0,23.42,NNE,16,0.0,0.0,42,0.00,,---,0.00,VWS V14.00,2014-01-14 03:39:00,
2014-01-13 20:44:00,25.7,5.8,23.42,NNE,16,0.0,0.0,42,0.00,,---,0.00,VWS V14.00,2014-01-14 03:44:00,
2014-01-13 20:49:00,25.5,5.6,23.42,NNE,16,0.0,0.0,42,0.00,,---,0.00,VWS V14.00,2014-01-14 03:49:00,
2014-01-13 20:54:00,25.3,5.5,23.42,NNE,16,0.0,0.0,42,0.00,,---,0.00,VWS V14.00,2014-01-14 03:54:00,
2014-01-13 20:59:00,25.2,5.3,23.42,NNE,16,0.0,0.0,42,0.00,,---,0.00,VWS V14.00,2014-01-14 03:59:00,
2014-01-13 21:04:00,25.0,5.1,23.42,NNE,16,0.0,0.0,42,0.00,,---,0.00,VWS V14.00,2014-01-14 04:04:00,
2014-01-13 21:09:00,24.8,5.0,23.42,NNE,16,0.0,0.0,42,0.00,,---,0.00,VWS V14.00,2014-01-14 04:09:00,
2014-01-13 21:14:00,24.6,4.8,23.42,NNE,16,0.0,0.0,42,0.00,,---,0.00,VWS V14.00,2014-01-14 04:14:00,
2014-01-13 21:19:00,24.4,4.7,23.42,NNE,16,0.0,0.0,42,0.00,,---,0.00,VWS V14.00,2014-01-14 04:19:00,
2014-01-13 21:24:00,24.3,4.5,23.42,NNE,16,0.0,0.0,42,0.00,,---,0.00,VWS V14.00,2014-01-14 04:24:00,
2014-01-13 21:29:00,24.1,4.3,23.42,NNE,16,0.0,0.0,42,0.00,,---,0.00,VWS V14.00,2014-01-14 04:29:00,
2014-01-13 21:34:00,23.9,4.2,23.42,NNE,16,0.0,0.0,42,0.00,,---,0.00,VWS V14.00,2014-01-14 04:34:00,
2014-01-13 21:39:00,23.7,4.0,23.42,East,98,0.0,0.0,42,0.00,,---,0.00,VWS V14.00,2014-01-14 04:39:00,
2014-01-13 21:44:00,23.5,3.8,23.42,East,98,0.0,0.0,42,0.00,,---,0.00,VWS V14.00,2014-01-14 04:44:00,
2014-01-13 21:49:00,23.5,3.8,23.42,East,98,0.0,0.0,42,0.00,,---,0.00,VWS V14.00,2014-01-14 04:49:00,
2014-01-13 21:54:00,23.5,3.8,23.42,East,98,0.0,0.0,42,0.00,,---,0.00,VWS V14.00,2014-01-14 04:54:00,
2014-01-13 21:59:00,23.5,3.8,23.42,East,98,0.0,0.0,42,0.00,,---,0.00,VWS V14.00,2014-01-14 04:59:00,
2014-01-13 22:02:00,23.4,3.7,23.42,East,98,0.0,0.0,42,0.00,,---,0.00,VWS V14.00,2014-01-14 05:02:00,
2014-01-13 22:03:00,23.4,3.7,23.42,East,98,0.0,0.0,42,0.00,,---,0.00,VWS V14.00,2014-01-14 05:03:00,
2014-01-13 22:06:00,23.4,3.7,23.42,East,98,0.0,0.0,42,0.00,,---,0.00,VWS V14.00,2014-01-14 05:06:00,
2014-01-13 22:11:00,23.4,3.7,23.42,East,98,0.0,0.0,42,0.00,,---,0.00,VWS V14.00,2014-01-14 05:11:00,
2014-01-13 22:16:00,23.2,3.5,23.42,East,98,0.0,0.0,42,0.00,,---,0.00,VWS V14.00,2014-01-14 05:16:00,
2014-01-13 22:21:00,23.0,3.8,23.42,East,98,0.0,0.0,43,0.00,,---,0.00,VWS V14.00,2014-01-14 05:21:00,
2014-01-13 22:26:00,23.0,3.8,23.42,East,98,0.0,0.0,43,0.00,,---,0.00,VWS V14.00,2014-01-14 05:26:00,
2014-01-13 22:31:00,22.8,3.7,23.42,East,98,0.0,0.0,43,0.00,,---,0.00,VWS V14.00,2014-01-14 05:31:00,
2014-01-13 22:36:00,22.8,3.7,23.42,East,98,0.0,0.0,43,0.00,,---,0.00,VWS V14.00,2014-01-14 05:36:00,
2014-01-13 22:41:00,22.6,3.5,23.42,East,98,0.0,0.0,43,0.00,,---,0.00,VWS V14.00,2014-01-14 05:41:00,
2014-01-13 22:46:00,22.5,3.4,23.42,South,182,0.0,0.0,43,0.00,,---,0.00,VWS V14.00,2014-01-14 05:46:00,
2014-01-13 22:51:00,22.5,3.4,23.42,South,182,0.0,0.0,43,0.00,,---,0.00,VWS V14.00,2014-01-14 05:51:00,
2014-01-13 22:56:00,22.3,3.2,23.42,NNW,333,0.0,2.7,43,0.00,,---,0.00,VWS V14.00,2014-01-14 05:56:00,
2014-01-13 23:01:00,22.1,3.0,23.42,NNW,333,0.0,0.0,43,0.00,,---,0.00,VWS V14.00,2014-01-14 06:01:00,
2014-01-13 23:06:00,22.1,3.0,23.42,NW,311,3.1,3.1,43,0.00,,---,0.00,VWS V14.00,2014-01-14 06:06:00,
2014-01-13 23:11:00,21.9,2.9,23.42,NW,311,0.0,0.0,43,0.00,,---,0.00,VWS V14.00,2014-01-14 06:11:00,
2014-01-13 23:16:00,21.9,2.9,23.42,East,88,3.6,3.6,43,0.00,,---,0.00,VWS V14.00,2014-01-14 06:16:00,
2014-01-13 23:21:00,21.9,2.9,23.42,East,92,2.2,2.2,43,0.00,,---,0.00,VWS V14.00,2014-01-14 06:21:00,
2014-01-13 23:26:00,21.7,2.7,23.42,South,185,2.2,4.0,43,0.00,,---,0.00,VWS V14.00,2014-01-14 06:26:00,
2014-01-13 23:31:00,21.7,2.7,23.42,South,185,0.0,0.0,43,0.00,,---,0.00,VWS V14.00,2014-01-14 06:31:00,
2014-01-13 23:36:00,21.6,2.5,23.42,South,185,0.0,0.0,43,0.00,,---,0.00,VWS V14.00,2014-01-14 06:36:00,
2014-01-13 23:41:00,21.6,2.5,23.42,South,185,0.0,0.0,43,0.00,,---,0.00,VWS V14.00,2014-01-14 06:41:00,
2014-01-13 23:46:00,21.4,2.4,23.42,South,185,0.0,0.0,43,0.00,,---,0.00,VWS V14.00,2014-01-14 06:46:00,
2014-01-13 23:51:00,21.4,2.4,23.42,South,185,0.0,0.0,43,0.00,,---,0.00,VWS V14.00,2014-01-14 06:51:00,
2014-01-13 23:56:00,21.2,2.2,23.42,South,185,0.0,0.0,43,0.00,,---,0.00,VWS V14.00,2014-01-14 06:56:00,